This is the latest recevied weather packets stored in our database for station/object N5SNT-2. If no packets are shown the sender has not sent any weather packets the latest 10 day(s).
| Time | Temp. | Humidity | Pressure | Rain* | Wind** | Luminosity | Snow |
|---|---|---|---|---|---|---|---|
| 1777830743 | 23.33° C | 47% | 1025 hPa | 0 mm | - | 926 W/m² | - |
| 1777830444 | 23.33° C | 49% | 1025 hPa | 0 mm | - | 932 W/m² | - |
| 1777830143 | 23.89° C | 47% | 1025 hPa | 0 mm | - | 920 W/m² | - |
| 1777829844 | 23.33° C | 47% | 1025 hPa | 0 mm | - | 917 W/m² | - |
| 1777829544 | 23.33° C | 48% | 1025 hPa | 0 mm | - | 918 W/m² | - |
| 1777829245 | 22.78° C | 51% | 1025 hPa | 0 mm | - | 904 W/m² | - |
| 1777828943 | 23.33° C | 49% | 1025 hPa | 0 mm | - | 898 W/m² | - |
| 1777828644 | 22.78° C | 49% | 1025 hPa | 0 mm | - | 892 W/m² | - |
| 1777828343 | 22.78° C | 50% | 1025 hPa | 0 mm | - | 880 W/m² | - |
| 1777828043 | 23.33° C | 48% | 1025 hPa | 0 mm | - | 872 W/m² | - |
| 1777827743 | 23.33° C | 48% | 1025 hPa | 0 mm | - | 862 W/m² | - |
| 1777827443 | 22.78° C | 47% | 1026 hPa | 0 mm | - | 855 W/m² | - |
| 1777827149 | 22.78° C | 46% | 1026 hPa | 0 mm | - | 844 W/m² | - |
| 1777826843 | 22.78° C | 45% | 1026 hPa | 0 mm | - | 837 W/m² | - |
| 1777826543 | 23.33° C | 49% | 1026 hPa | 0 mm | - | 829 W/m² | - |
| 1777826243 | 22.78° C | 50% | 1026 hPa | 0 mm | - | 817 W/m² | - |
| 1777825943 | 22.22° C | 49% | 1026 hPa | 0 mm | - | 809 W/m² | - |
| 1777825643 | 22.22° C | 51% | 1026 hPa | 0 mm | - | 798 W/m² | - |
| 1777825344 | 21.67° C | 51% | 1026 hPa | 0 mm | - | 783 W/m² | - |
| 1777825043 | 22.22° C | 49% | 1026 hPa | 0 mm | - | 769 W/m² | - |
| 1777824743 | 22.22° C | 49% | 1026 hPa | 0 mm | - | 757 W/m² | - |
| 1777824443 | 22.78° C | 48% | 1026 hPa | 0 mm | - | 741 W/m² | - |
| 1777824143 | 22.22° C | 50% | 1026 hPa | 0 mm | - | 726 W/m² | - |
| 1777823844 | 22.22° C | 50% | 1026 hPa | 0 mm | - | 710 W/m² | - |
| 1777823544 | 22.22° C | 50% | 1026 hPa | 0 mm | - | 689 W/m² | - |
* Rain latest hour (hover to see other rain measurements)
** Current wind speed in m/s (hover to see current wind gust speed)